Showing default

LEMUR 2 LIA-MARTIN, 63248

Orbit data source: Space-Track

LEMUR 2 LIA-MARTIN, 63248 is a payload satellite owned by Spire (US) in SSO that was launched on Sat, 15 Mar 2025 UTC via an FALCON 9 launch vehicle from the Air Force Western Test Range (AFWTR). Payload-class satellites include a variety of spacecraft equipped with specific instruments for various scientific and technological missions. These include communications satellites like Starlink; space stations such as the ISS; scientific satellites like the Hubble; Earth observation satellites from companies like Planet Labs, Umbra, and HawkEye 360; GPS; miniature CubeSats for education and research; and military/defense satellites.

Loading next visibility...
Identifier
63248, 2025-052AQ
Orbit
SSO
Country
Flag of USUS
Related business
Manufacturer
Spire/Glasgow
Mission
Operational Commercial Com/MetRO
Bus & Motor
CUBESAT 6U, Unknown motor
Mass
10 kg wet, 10 kg dry
Launch date (UTC)
2025-03-15 (7 months ago)
Launch vehicle
FALCON 9
Launch site
Air Force Western Test Range (AFWTR)
Object type
Payload
Rocket body
Debris
Shape & HBR
Box, 0.2 m
Radar Cross Section
0.080 m², Small (<0.1 m²)

Expand to show TLE details & history
Last TLE update: 18 hours ago

TLE from 18 hours ago
0 LEMUR 2 LIA-MARTIN
1 63248U 25052AQ  25286.98588260  .00009832  00000-0  91991-3 0  9990
2 63248  97.7112 178.3201 0001924 332.9391  27.1729 14.94292144 31866
Epoch: 2025-10-13T23:39Z
TLE epoch observation values (Epoch: 2025-10-13T23:39:40.256Z)
Latitude
-0°
Longitude
160.62157°
Altitude
586.425 km
Speed
7.568 km/s
True Right ascension
11h 53m 16s
True Declination
0° 00' 00"
Sunlit
Object was in daylight at epoch
Visualization orbit readout
Latitude
Unknown
Longitude
Unknown
Altitude
Unknown
Speed
Unknown
Apparent Right ascension
Unknown
Apparent Declination
Unknown
Sunlit
N/A
Visualization observer readout
Local Sidereal Time
11:57:55
Azimuth
Unknown
Elevation
Unknown
Doppler factor
Unknown
Orbital elements
Apogee altitude
582.923 km
Perigee altitude
580.245 km
Semi-major axis
6,959.721 km
Eccentricity
0.00019
Inclination
97.7112°
RAAN
178.3201°
Arg. of periapsis
332.9391°
True anomaly
27.18297°
Mean anomaly
27.1729°
Eccentric anomaly
27.17794°
Mean motion
3.73814 °/min
Orbital period
96.3 mins
BSTAR
0.00091991
Loading maneuver chart data...
Computing Atmospheric mass density...
Loading historical data...
Loading historical data...
Loading historical data...
Loading historical data...
Loading historical data...
Loading historical data...
Loading historical data...

Documentation

Showing up to 5 results
|